[[{"header":{"parameterUnit":"m.s-1","parameterCategory":1,"la1":30.2991,"la2":30.254,"lo1":-89.0895,"lo2":-89.0444,"dy":0.0017,"dx":0.0017,"nx":28,"ny":28,"refTime":"2025-07-18T09:00:00:Z","depth":0,"parameterNumber":2,"parameterNumberName":"U-component_of_WINDS"},"data":[0,0,0,0,0,0,0,0,0,0,0,0,0,0,0,0,0,0,0,0,0,0,0,0,0,0,0,0,0,0,0,0,0,0,0,0,0,0,0,0,0,0,0,0,0,0,0,0,0,0,0,0,0,0,0,0,0,0,0.6497,0.6498,0,0.6618,0.6619,0.6621,0.6677,0.6677,0.6677,0.6677,0.6803,0.6806,0.681,0,0,0,0,0,0,0,0,0,0,0,0,0,0.6316,0.6319,0.6497,0.6498,0.65,0.6618,0.6619,0.6621,0.6677,0.6677,0.6677,0.6677,0.6802,0.6806,0.681,0,0,0,0,0,0,0,0,0,0,0,0,0,0.6411,0.632,0.6497,0.6542,0.6547,0.6617,0.6619,0.6621,0.6677,0.6677,0.6677,0.6677,0.68,0.6805,0.681,0.6844,0,0,0.6826,0.6828,0,0,0,0,0,0,0,0,0.6406,0.6418,0.6534,0.6539,0.6545,0.6632,0.6602,0.6696,0.6677,0.6628,0.6677,0.6677,0.6746,0.6756,0.6779,0.685,0.6856,0.6827,0.683,0.6832,0.6833,0,0,0,0,0,0,0,0.6399,0.6413,0.6545,0.6536,0.6542,0.6557,0.657,0.662,0.6686,0.6632,0.6637,0.665,0.6749,0.6774,0.6782,0.6858,0.6826,0.6831,0.6834,0.6836,0.6963,0.6963,0,0,0,0,0,0,0.6385,0.6407,0.6541,0.6548,0.6474,0.656,0.6575,0.6604,0.6686,0.6698,0.665,0.6652,0.6765,0.6776,0.6787,0.6832,0.6832,0.6837,0.684,0.6962,0.6963,0.6963,0,0,0,0,0,0,0.6381,0.6396,0.6536,0.6479,0.6498,0.6563,0.6596,0.6607,0.6631,0.67,0.6712,0.6663,0.6765,0.678,0.6829,0.6837,0.6839,0.6844,0.6962,0.6962,0.6963,0.6922,0,0,0,0,0,0,0.6375,0.6395,0.6408,0.6479,0.6501,0.6576,0.6596,0.6609,0.664,0.6644,0.6715,0.6726,0.6766,0.6821,0.6835,0.6844,0.6848,0.6962,0.6962,0.6963,0.6923,0.6921,0.692,0,0,0,0,0,0.6369,0.6392,0.6408,0.6424,0.6519,0.6576,0.6589,0.6634,0.664,0.6654,0.6698,0.6724,0.6834,0.6826,0.6841,0.6853,0.6961,0.6962,0.6963,0.6924,0.6922,0.692,0,0,0,0,0,0,0.6321,0.6402,0.6421,0.6468,0.6515,0.6586,0.6605,0.663,0.6677,0.6679,0.6733,0.6749,0.6794,0.6828,0.6818,0.689,0.69,0.6904,0.6866,0.6864,0.6862,0.6853,0.6852,0,0,0,0,0,0.6316,0.6356,0.6425,0.646,0.6482,0.6539,0.6566,0.6597,0.6648,0.6668,0.6715,0.6764,0.681,0.6839,0.6884,0.6928,0.6944,0.6943,0.6941,0.694,0.6942,0.6968,0.6968,0.6965,0.6965,0.6965,0,0,0.6306,0.6356,0.6377,0.6451,0.6491,0.6531,0.6556,0.6597,0.6628,0.6675,0.6724,0.676,0.6818,0.6865,0.6888,0.6895,0.6947,0.694,0.6938,0.6943,0.6969,0.6969,0.6969,0.6965,0.6965,0.6965,0,0,0.6309,0.635,0.6384,0.6423,0.6482,0.652,0.6528,0.6595,0.662,0.6671,0.6707,0.6744,0.6821,0.6861,0.6891,0.6907,0.6933,0.6921,0.6911,0.6936,0.6936,0.6936,0.6942,0.6944,0.6923,0.6923,0.6923,0,0.629,0.6351,0.6398,0.6437,0.6468,0.6512,0.6546,0.6582,0.6653,0.6674,0.6681,0.6778,0.682,0.6877,0.688,0.6904,0.6914,0.6913,0.6932,0.6933,0.6934,0.694,0.6942,0.6921,0.6921,0.6922,0.6922,0,0.6324,0.6366,0.6386,0.6453,0.6487,0.6523,0.6576,0.6604,0.6631,0.6668,0.6719,0.6771,0.6827,0.6843,0.687,0.6903,0.6906,0.6921,0.6933,0.6932,0.6938,0.6941,0.6918,0.6919,0.692,0.692,0,0,0.6301,0.6393,0.6399,0.643,0.6499,0.6532,0.657,0.6625,0.6648,0.6696,0.673,0.6793,0.6808,0.6842,0.6874,0.6895,0.6905,0.6909,0.6911,0.6906,0.6944,0.6932,0.6934,0.6922,0.6922,0.6923,0.6939,0,0.6314,0.6384,0.6427,0.648,0.6519,0.656,0.6593,0.6639,0.6674,0.6713,0.6752,0.6797,0.6812,0.6833,0.6856,0.6899,0.6913,0.6898,0.6954,0.6955,0.6938,0.6937,0.6925,0.6938,0.6942,0.6942,0.6943,0,0.6338,0.6384,0.644,0.6504,0.6522,0.6551,0.6604,0.664,0.6693,0.6717,0.6754,0.6786,0.6829,0.6836,0.6895,0.6884,0.6909,0.6933,0.6935,0.6942,0.6949,0.6945,0.6943,0.6945,0.6947,0.6947,0.6947,0,0.6316,0.6391,0.6435,0.646,0.6535,0.6555,0.6587,0.6639,0.6669,0.6715,0.6735,0.6786,0.6814,0.6853,0.6897,0.6899,0.6952,0.6963,0.6973,0.6972,0.6983,0.6982,0.6986,0.6999,0.6998,0.6998,0.6998,0,0.6325,0.6358,0.6426,0.6453,0.6491,0.654,0.6576,0.6612,0.6658,0.6692,0.6731,0.6763,0.682,0.6858,0.6894,0.6937,0.6949,0.697,0.6979,0.6967,0.6964,0.6985,0.6985,0.6999,0.6999,0.6999,0.6999,0,0.6307,0.6354,0.6404,0.6471,0.6488,0.6513,0.657,0.6598,0.6635,0.6678,0.6691,0.6749,0.6796,0.6845,0.6909,0.6933,0.6975,0.6987,0.6957,0.6962,0.697,0.6969,0.6988,0.6993,0.7001,0.7001,0.7001,0,0.6311,0.6337,0.6406,0.6432,0.6463,0.6504,0.6534,0.6582,0.6612,0.6673,0.6694,0.6744,0.6786,0.686,0.6908,0.6958,0.6972,0.6975,0.6979,0.6966,0.6972,0.697,0.6973,0.6973,0.6973,0.6972,0.6972,0,0.6312,0.6333,0.6375,0.6425,0.646,0.6502,0.6545,0.6564,0.6621,0.6653,0.6701,0.6734,0.6799,0.6849,0.6903,0.6937,0.6964,0.697,0.6975,0.6963,0.6945,0.6955,0.6953,0.697,0.697,0.697,0.697,0.697,0.6305,0.633,0.6382,0.6428,0.6465,0.6504,0.6534,0.6573,0.6615,0.6671,0.6697,0.6746,0.6797,0.6873,0.6905,0.6944,0.6952,0.6959,0.6961,0.6962,0.6959,0.6938,0.6954,0.6955,0.6955,0.6955,0.6955,0,0.6308,0.6344,0.6385,0.6444,0.6479,0.6501,0.6549,0.6578,0.662,0.6665,0.6706,0.6761,0.6809,0.686,0.6911,0.6932,0.6946,0.6944,0.6943,0.695,0.695,0.694,0.6932,0.6932,0.6932,0.6932,0.6932,0.6932,0.6314,0.6358,0.6385,0.6448,0.6483,0.6531,0.6556,0.6593,0.6629,0.6689,0.6728,0.6761,0.6809,0.6863,0.6907,0.6921,0.6938,0.6932,0.695,0.6949,0.695,0.6952,0.6943,0.6936,0.6936,0.6947,0.6947,0.6947]},{"header":{"parameterUnit":"m.s-1","parameterCategory":1,"la1":30.2991,"la2":30.254,"lo1":-89.0895,"lo2":-89.0444,"dy":0.0017,"dx":0.0017,"nx":28,"ny":28,"refTime":"2025-07-18T09:00:00:Z","depth":0,"parameterNumber":3,"parameterNumberName":"V-component_of_WINDS"},"data":[0,0,0,0,0,0,0,0,0,0,0,0,0,0,0,0,0,0,0,0,0,0,0,0,0,0,0,0,0,0,0,0,0,0,0,0,0,0,0,0,0,0,0,0,0,0,0,0,0,0,0,0,0,0,0,0,0,0,4.1666,4.1666,0,4.1655,4.1655,4.1654,4.1644,4.1644,4.1644,4.1644,4.1631,4.1631,4.163,0,0,0,0,0,0,0,0,0,0,0,0,0,4.1678,4.1678,4.1666,4.1666,4.1666,4.1655,4.1655,4.1654,4.1644,4.1644,4.1644,4.1643,4.1631,4.1631,4.163,0,0,0,0,0,0,0,0,0,0,0,0,0,4.167,4.1678,4.1666,4.1659,4.1659,4.1655,4.1655,4.1654,4.1644,4.1644,4.1644,4.1643,4.1631,4.1631,4.163,4.1632,0,0,4.1629,4.1629,0,0,0,0,0,0,0,0,4.1671,4.167,4.1661,4.166,4.1659,4.1651,4.1654,4.1647,4.1644,4.1649,4.1644,4.1643,4.1637,4.1637,4.1635,4.1631,4.1631,4.1629,4.1629,4.1629,4.1629,0,0,0,0,0,0,0,4.1671,4.167,4.1662,4.166,4.1659,4.1657,4.1655,4.1653,4.1645,4.1649,4.1648,4.1647,4.1637,4.1635,4.1634,4.1631,4.1629,4.1629,4.1629,4.1629,4.1628,4.1628,0,0,0,0,0,0,4.1673,4.1671,4.1662,4.1661,4.1665,4.1656,4.1655,4.1653,4.1645,4.1643,4.1647,4.1647,4.1636,4.1635,4.1634,4.1635,4.1629,4.1629,4.1628,4.1628,4.1628,4.1628,0,0,0,0,0,0,4.1673,4.1672,4.1662,4.1666,4.1664,4.1656,4.1655,4.1653,4.1651,4.1643,4.1642,4.1647,4.1636,4.1634,4.1633,4.1634,4.1628,4.1628,4.1627,4.1628,4.1628,4.1638,0,0,0,0,0,0,4.1674,4.1673,4.1673,4.1666,4.1664,4.1662,4.1655,4.1653,4.1651,4.165,4.1643,4.1641,4.1635,4.1633,4.1632,4.1634,4.1628,4.1627,4.1627,4.1628,4.1637,4.1638,4.1639,0,0,0,0,0,4.1674,4.1676,4.1674,4.1672,4.1665,4.1662,4.1661,4.1654,4.1651,4.1652,4.1647,4.1641,4.1635,4.1633,4.1632,4.1634,4.1627,4.1627,4.1628,4.1637,4.1638,4.1639,0,0,0,0,0,0,4.1684,4.1675,4.1672,4.1672,4.1668,4.166,4.1661,4.1656,4.1652,4.1652,4.1644,4.1642,4.1641,4.1637,4.1636,4.1635,4.163,4.163,4.1637,4.1638,4.1639,4.164,4.1628,0,0,0,0,0,4.1686,4.1685,4.1677,4.1678,4.1676,4.1669,4.1667,4.1662,4.1657,4.1655,4.165,4.1645,4.1642,4.164,4.1636,4.1636,4.1634,4.1637,4.1638,4.1639,4.1639,4.1638,4.1639,4.1629,4.1629,4.1629,0,0,4.1691,4.1686,4.1685,4.1679,4.1676,4.1674,4.1667,4.1665,4.1664,4.1655,4.1653,4.1649,4.1643,4.1642,4.1641,4.1639,4.1641,4.1639,4.164,4.164,4.1639,4.164,4.1641,4.1629,4.1629,4.1629,0,0,4.1698,4.1694,4.1694,4.169,4.1685,4.168,4.168,4.1673,4.167,4.1668,4.1661,4.1659,4.1654,4.165,4.1647,4.1652,4.1647,4.1651,4.1656,4.1656,4.1657,4.1657,4.1659,4.1659,4.1651,4.1652,4.1652,0,4.1704,4.1701,4.1694,4.1693,4.1691,4.1683,4.1683,4.1679,4.1673,4.1671,4.1669,4.1662,4.1657,4.1655,4.1656,4.1654,4.1654,4.1652,4.1657,4.1658,4.1658,4.166,4.166,4.1652,4.1652,4.1652,4.1652,0,4.1708,4.1706,4.1707,4.1701,4.1699,4.1698,4.1691,4.1689,4.1685,4.1681,4.1678,4.1673,4.1668,4.1667,4.1663,4.1664,4.1663,4.1659,4.1654,4.166,4.1661,4.1661,4.1653,4.1653,4.1652,4.1652,0,0,4.1721,4.1712,4.1712,4.1709,4.1702,4.1701,4.1699,4.1695,4.1693,4.1689,4.1687,4.1683,4.1679,4.1676,4.1671,4.1671,4.1675,4.1667,4.1667,4.1668,4.1676,4.1678,4.1679,4.1672,4.1672,4.1672,4.1676,0,4.1727,4.1724,4.1718,4.1717,4.1715,4.1708,4.1707,4.1703,4.1698,4.1695,4.169,4.1687,4.1683,4.1681,4.168,4.1675,4.1676,4.1674,4.167,4.167,4.1671,4.168,4.1683,4.1687,4.1676,4.1677,4.1677,0,4.1733,4.1729,4.1728,4.1721,4.172,4.1719,4.1715,4.1712,4.1707,4.1704,4.17,4.1695,4.1693,4.1689,4.1685,4.1684,4.1682,4.1679,4.1679,4.1678,4.1673,4.1679,4.1688,4.1689,4.1677,4.1677,4.1677,0,4.1742,4.1736,4.1735,4.1733,4.1725,4.1725,4.1721,4.1716,4.1713,4.1709,4.1707,4.1703,4.17,4.1697,4.169,4.1688,4.1687,4.1683,4.1684,4.1684,4.1684,4.1684,4.1693,4.1683,4.1683,4.1683,4.1683,0,4.1748,4.1748,4.1739,4.1738,4.1738,4.1731,4.173,4.1726,4.1721,4.1719,4.1713,4.1711,4.1702,4.1699,4.1694,4.1692,4.1691,4.1688,4.1686,4.1688,4.1689,4.1686,4.1686,4.1684,4.1684,4.1683,4.1683,0,4.1758,4.1752,4.175,4.1743,4.1741,4.1741,4.1734,4.1733,4.1729,4.1726,4.1725,4.1717,4.1714,4.1707,4.1701,4.1697,4.1696,4.1694,4.1698,4.1697,4.1699,4.1699,4.1706,4.1707,4.1697,4.1697,4.1697,0,4.1762,4.1762,4.1755,4.1753,4.175,4.1747,4.1745,4.1738,4.1736,4.173,4.1729,4.1725,4.1721,4.1715,4.1709,4.1704,4.1702,4.1705,4.1701,4.1703,4.1701,4.1701,4.1701,4.1705,4.1705,4.1706,4.1706,0,4.1771,4.1768,4.1765,4.1761,4.1758,4.1755,4.1751,4.175,4.1742,4.174,4.1736,4.1733,4.1727,4.1722,4.1717,4.1713,4.1708,4.1707,4.1707,4.1709,4.1711,4.171,4.17,4.1707,4.1707,4.1707,4.1706,4.1706,4.1778,4.1777,4.1772,4.1769,4.1765,4.1761,4.176,4.1755,4.1752,4.1747,4.1743,4.1739,4.1733,4.1726,4.1722,4.1719,4.1716,4.1716,4.1716,4.1716,4.1717,4.1712,4.1718,4.1717,4.1717,4.1717,4.1717,0,4.1786,4.1782,4.1779,4.1774,4.1771,4.1767,4.1763,4.1761,4.1758,4.1753,4.1749,4.1745,4.174,4.1734,4.1729,4.1728,4.1725,4.1726,4.1726,4.1725,4.172,4.172,4.1729,4.1729,4.1729,4.1729,4.1728,4.1728,4.1789,4.1788,4.1784,4.1781,4.1777,4.1774,4.1771,4.1768,4.1764,4.1759,4.1756,4.1752,4.1746,4.1741,4.1736,4.1735,4.1733,4.1735,4.1732,4.1727,4.1726,4.1725,4.1725,4.1735,4.1735,4.1738,4.1738,4.1738]}]]